{"data":{"norad_id":66632,"epoch":"2026-09-20T04:02:00.776256Z","epoch_age_seconds":115544,"freshness":"FRESH","line1":"1 66632U 25271R   26263.16806454  .00013559  00000+0  41163-3 0  9993","line2":"2 66632  53.1587 311.5352 0001760 102.0810 258.0390 15.34406059 47364","mean_motion":15.34406059,"eccentricity":0.000176,"inclination_deg":53.1587,"raan_deg":311.5352,"arg_perigee_deg":102.081,"mean_anomaly_deg":258.039,"bstar":0.00041163,"rev_number":4736,"period_min":93.847387499139,"perigee_km":461.48124692872,"apogee_km":463.88921635426,"semimajor_km":6840.8222316415,"source":"CELESTRAK","updated_at":"2026-09-21T09:00:35.985014Z"}}